Time,TemperatureF,DewpointF,PressureIn,WindDirection,WindDirectionDegrees,WindSpeedMPH,WindSpeedGustMPH,Humidity,HourlyPrecipIn,Conditions,Clouds,dailyrainin,SolarRadiationWatts/m^2,SoftwareType,DateUTC
2015-05-06 00:02:00,53.2,40.5,30.27,ENE,68,4.5,8.1,62,0.00,CLR,,0.00,0.0,WeatherDisplay:10.37,2015-05-06 04:02:00,
2015-05-06 00:07:00,53.2,40.5,30.27,NE,45,4.0,4.6,62,0.00,CLR,,0.00,0.0,WeatherDisplay:10.37,2015-05-06 04:07:00,
2015-05-06 00:12:00,53.2,40.5,30.27,ENE,68,4.7,6.4,62,0.00,CLR,,0.00,0.0,WeatherDisplay:10.37,2015-05-06 04:12:00,
2015-05-06 00:17:00,53.2,40.5,30.27,ESE,112,2.0,3.6,62,0.00,CLR,,0.00,0.0,WeatherDisplay:10.37,2015-05-06 04:17:00,
2015-05-06 00:22:00,53.2,40.5,30.27,NE,45,2.0,4.0,62,0.00,CLR,,0.00,0.0,WeatherDisplay:10.37,2015-05-06 04:22:00,
2015-05-06 00:27:00,53.2,41.0,30.27,ENE,68,2.6,3.5,63,0.00,CLR,,0.00,0.0,WeatherDisplay:10.37,2015-05-06 04:27:00,
2015-05-06 00:32:00,53.4,41.1,30.30,NW,315,0.0,1.4,63,0.00,CLR,,0.00,0.0,WeatherDisplay:10.37,2015-05-06 04:32:00,
2015-05-06 00:37:00,53.2,41.0,30.30,NE,45,3.1,4.6,63,0.00,CLR,,0.00,0.0,WeatherDisplay:10.37,2015-05-06 04:37:00,
2015-05-06 00:42:00,53.4,41.1,30.30,ENE,68,2.6,3.5,63,0.00,CLR,,0.00,0.0,WeatherDisplay:10.37,2015-05-06 04:42:00,
2015-05-06 00:47:00,53.4,41.1,30.30,SE,135,2.9,2.9,63,0.00,CLR,,0.00,0.0,WeatherDisplay:10.37,2015-05-06 04:47:00,
2015-05-06 00:52:00,53.4,41.1,30.30,SSE,158,2.4,3.3,63,0.00,CLR,,0.00,0.0,WeatherDisplay:10.37,2015-05-06 04:52:00,
2015-05-06 00:57:00,53.4,41.1,30.30,East,90,3.1,3.5,63,0.00,CLR,,0.00,0.0,WeatherDisplay:10.37,2015-05-06 04:57:00,
2015-05-06 01:02:00,53.4,41.1,30.30,NNE,22,3.1,4.6,63,0.00,CLR,,0.00,0.0,WeatherDisplay:10.37,2015-05-06 05:02:00,
2015-05-06 01:07:00,53.4,41.1,30.30,ESE,112,3.3,3.6,63,0.00,CLR,,0.00,0.0,WeatherDisplay:10.37,2015-05-06 05:07:00,
2015-05-06 01:12:00,53.4,40.7,30.30,East,90,2.4,4.6,62,0.00,CLR,,0.00,0.0,WeatherDisplay:10.37,2015-05-06 05:12:00,
2015-05-06 01:17:00,53.4,40.7,30.27,NE,45,3.8,5.8,62,0.00,CLR,,0.00,0.0,WeatherDisplay:10.37,2015-05-06 05:17:00,
2015-05-06 01:22:00,53.2,40.5,30.27,NE,45,4.3,6.9,62,0.00,CLR,,0.00,0.0,WeatherDisplay:10.37,2015-05-06 05:22:00,
2015-05-06 01:27:00,53.1,40.4,30.27,ENE,68,3.6,5.8,62,0.00,CLR,,0.00,0.0,WeatherDisplay:10.37,2015-05-06 05:27:00,
2015-05-06 01:32:00,53.1,40.4,30.27,NE,45,2.2,3.5,62,0.00,CLR,,0.00,0.0,WeatherDisplay:10.37,2015-05-06 05:32:00,
2015-05-06 01:37:00,53.1,40.8,30.27,SE,135,3.1,4.6,63,0.00,CLR,,0.00,0.0,WeatherDisplay:10.37,2015-05-06 05:37:00,
2015-05-06 01:43:00,53.1,40.8,30.27,SSE,158,2.2,2.9,63,0.00,CLR,,0.00,0.0,WeatherDisplay:10.37,2015-05-06 05:43:00,
2015-05-06 01:48:00,53.1,40.8,30.30,SSE,158,6.2,6.9,63,0.00,CLR,,0.00,0.0,WeatherDisplay:10.37,2015-05-06 05:48:00,
2015-05-06 01:53:00,53.1,40.8,30.30,East,90,3.6,4.6,63,0.00,CLR,,0.00,0.0,WeatherDisplay:10.37,2015-05-06 05:53:00,
2015-05-06 01:58:00,53.1,40.8,30.30,ENE,68,2.0,3.5,63,0.00,CLR,,0.00,0.0,WeatherDisplay:10.37,2015-05-06 05:58:00,
2015-05-06 02:03:00,53.1,40.8,30.27,NNE,22,3.3,3.5,63,0.00,CLR,,0.00,0.0,WeatherDisplay:10.37,2015-05-06 06:03:00,
2015-05-06 02:08:00,53.1,40.8,30.27,NE,45,4.0,5.8,63,0.00,CLR,,0.00,0.0,WeatherDisplay:10.37,2015-05-06 06:08:00,
2015-05-06 02:13:00,52.9,40.6,30.27,ESE,112,2.9,3.5,63,0.00,CLR,,0.00,0.0,WeatherDisplay:10.37,2015-05-06 06:13:00,
2015-05-06 02:18:00,52.9,40.6,30.24,ESE,112,3.3,5.8,63,0.00,CLR,,0.00,0.0,WeatherDisplay:10.37,2015-05-06 06:18:00,
2015-05-06 02:23:00,52.9,40.6,30.24,East,90,3.6,6.2,63,0.00,CLR,,0.00,0.0,WeatherDisplay:10.37,2015-05-06 06:23:00,
2015-05-06 02:28:00,52.9,40.6,30.24,ESE,112,2.2,3.5,63,0.00,CLR,,0.00,0.0,WeatherDisplay:10.37,2015-05-06 06:28:00,
2015-05-06 02:33:00,52.9,40.6,30.24,East,90,3.1,3.5,63,0.00,CLR,,0.00,0.0,WeatherDisplay:10.37,2015-05-06 06:33:00,
2015-05-06 02:38:00,52.9,40.2,30.24,ESE,112,1.6,3.5,62,0.00,CLR,,0.00,0.0,WeatherDisplay:10.37,2015-05-06 06:38:00,
2015-05-06 02:43:00,52.9,40.6,30.24,NNE,22,2.0,3.5,63,0.00,CLR,,0.00,0.0,WeatherDisplay:10.37,2015-05-06 06:43:00,
2015-05-06 02:48:00,52.9,40.6,30.24,NE,45,2.2,3.8,63,0.00,CLR,,0.00,0.0,WeatherDisplay:10.37,2015-05-06 06:48:00,
2015-05-06 02:53:00,52.9,40.6,30.24,ENE,68,2.0,2.3,63,0.00,CLR,,0.00,0.0,WeatherDisplay:10.37,2015-05-06 06:53:00,
2015-05-06 02:58:00,52.9,40.6,30.24,ESE,112,2.4,3.6,63,0.00,CLR,,0.00,0.0,WeatherDisplay:10.37,2015-05-06 06:58:00,
2015-05-06 03:03:00,52.9,40.6,30.24,ENE,68,3.3,4.6,63,0.00,CLR,,0.00,0.0,WeatherDisplay:10.37,2015-05-06 07:03:00,
2015-05-06 03:08:00,52.7,40.5,30.24,NE,45,1.4,2.3,63,0.00,CLR,,0.00,0.0,WeatherDisplay:10.37,2015-05-06 07:08:00,
2015-05-06 03:13:00,52.7,40.5,30.24,East,90,3.6,4.6,63,0.00,CLR,,0.00,0.0,WeatherDisplay:10.37,2015-05-06 07:13:00,
2015-05-06 03:18:00,52.7,40.5,30.24,NE,45,2.9,2.9,63,0.00,CLR,,0.00,0.0,WeatherDisplay:10.37,2015-05-06 07:18:00,
2015-05-06 03:23:00,52.7,40.5,30.24,NNE,22,2.2,2.3,63,0.00,CLR,,0.00,0.0,WeatherDisplay:10.37,2015-05-06 07:23:00,
2015-05-06 03:28:00,52.7,40.5,30.24,ENE,68,2.0,4.6,63,0.00,CLR,,0.00,0.0,WeatherDisplay:10.37,2015-05-06 07:28:00,
2015-05-06 03:33:00,52.7,40.5,30.24,ENE,68,2.2,2.6,63,0.00,CLR,,0.00,0.0,WeatherDisplay:10.37,2015-05-06 07:33:00,
2015-05-06 03:38:00,52.7,40.5,30.24,NE,45,2.0,2.3,63,0.00,CLR,,0.00,0.0,WeatherDisplay:10.37,2015-05-06 07:38:00,
2015-05-06 03:43:00,52.7,40.5,30.24,NE,45,2.0,2.3,63,0.00,CLR,,0.00,0.0,WeatherDisplay:10.37,2015-05-06 07:43:00,
2015-05-06 03:48:00,52.7,40.5,30.24,ENE,68,2.9,3.5,63,0.00,CLR,,0.00,0.0,WeatherDisplay:10.37,2015-05-06 07:48:00,
2015-05-06 03:53:00,52.7,40.5,30.24,NE,45,2.6,3.5,63,0.00,CLR,,0.00,0.0,WeatherDisplay:10.37,2015-05-06 07:53:00,
2015-05-06 03:58:00,52.7,40.9,30.24,NE,45,3.3,3.5,64,0.00,CLR,,0.00,0.0,WeatherDisplay:10.37,2015-05-06 07:58:00,
2015-05-06 04:03:00,52.7,40.9,30.24,NE,45,3.1,3.5,64,0.00,CLR,,0.00,0.0,WeatherDisplay:10.37,2015-05-06 08:03:00,
2015-05-06 04:08:00,52.7,40.9,30.24,NNE,22,2.6,3.5,64,0.00,CLR,,0.00,0.0,WeatherDisplay:10.37,2015-05-06 08:08:00,
2015-05-06 04:13:00,52.7,40.9,30.24,ENE,68,3.1,4.6,64,0.00,CLR,,0.00,0.0,WeatherDisplay:10.37,2015-05-06 08:13:00,
2015-05-06 04:18:00,52.7,40.9,30.21,NNE,22,2.6,4.6,64,0.00,CLR,,0.00,0.0,WeatherDisplay:10.37,2015-05-06 08:18:00,
2015-05-06 04:23:00,52.5,40.7,30.21,NE,45,2.9,3.5,64,0.00,CLR,,0.00,0.0,WeatherDisplay:10.37,2015-05-06 08:23:00,
2015-05-06 04:28:00,52.5,40.7,30.21,NE,45,3.3,4.6,64,0.00,CLR,,0.00,0.0,WeatherDisplay:10.37,2015-05-06 08:28:00,
2015-05-06 04:33:00,52.5,40.7,30.24,ENE,68,3.3,4.6,64,0.00,CLR,,0.00,0.0,WeatherDisplay:10.37,2015-05-06 08:33:00,
2015-05-06 04:38:00,52.5,40.7,30.24,NNE,22,4.0,5.8,64,0.00,CLR,,0.00,0.0,WeatherDisplay:10.37,2015-05-06 08:38:00,
2015-05-06 04:43:00,52.5,40.7,30.24,ENE,68,4.5,5.8,64,0.00,CLR,,0.00,0.0,WeatherDisplay:10.37,2015-05-06 08:43:00,
2015-05-06 04:48:00,52.3,40.5,30.24,ENE,68,3.6,4.6,64,0.00,CLR,,0.00,0.0,WeatherDisplay:10.37,2015-05-06 08:48:00,
2015-05-06 04:53:00,52.3,40.5,30.24,ENE,68,2.2,3.5,64,0.00,CLR,,0.00,0.0,WeatherDisplay:10.37,2015-05-06 08:53:00,
2015-05-06 04:58:00,52.3,40.5,30.24,ENE,68,3.8,5.8,64,0.00,CLR,,0.00,0.0,WeatherDisplay:10.37,2015-05-06 08:58:00,
2015-05-06 05:03:00,52.3,40.5,30.24,NNE,22,2.9,4.6,64,0.00,CLR,,0.00,0.0,WeatherDisplay:10.37,2015-05-06 09:03:00,
2015-05-06 05:08:00,52.3,40.5,30.24,NNE,22,2.4,3.5,64,0.00,CLR,,0.00,0.0,WeatherDisplay:10.37,2015-05-06 09:08:00,
2015-05-06 05:13:00,52.3,40.5,30.24,ENE,68,4.0,4.6,64,0.00,CLR,,0.00,0.0,WeatherDisplay:10.37,2015-05-06 09:13:00,
2015-05-06 05:18:00,52.3,40.5,30.21,NNE,22,3.1,3.5,64,0.00,CLR,,0.00,0.0,WeatherDisplay:10.37,2015-05-06 09:18:00,
2015-05-06 05:23:00,52.3,40.5,30.21,NW,315,4.0,4.6,64,0.00,CLR,,0.00,0.0,WeatherDisplay:10.37,2015-05-06 09:23:00,
2015-05-06 05:28:00,52.2,40.3,30.21,NNE,22,3.1,4.6,64,0.00,CLR,,0.00,0.0,WeatherDisplay:10.37,2015-05-06 09:28:00,
2015-05-06 05:33:00,52.2,40.3,30.24,ENE,68,3.6,4.6,64,0.00,CLR,,0.00,0.0,WeatherDisplay:10.37,2015-05-06 09:33:00,
2015-05-06 05:38:00,52.2,40.7,30.24,NE,45,3.3,4.6,65,0.00,CLR,,0.00,0.0,WeatherDisplay:10.37,2015-05-06 09:38:00,
2015-05-06 05:43:00,52.2,40.7,30.24,NNE,22,2.6,4.6,65,0.00,CLR,,0.00,0.0,WeatherDisplay:10.37,2015-05-06 09:43:00,
2015-05-06 05:48:00,52.2,40.7,30.21,NE,45,2.4,4.6,65,0.00,CLR,,0.00,0.0,WeatherDisplay:10.37,2015-05-06 09:48:00,
2015-05-06 05:53:00,52.2,40.7,30.21,NE,45,3.3,3.6,65,0.00,CLR,,0.00,0.0,WeatherDisplay:10.37,2015-05-06 09:53:00,
2015-05-06 05:58:00,52.2,40.7,30.21,NE,45,3.3,4.0,65,0.00,CLR,,0.00,0.0,WeatherDisplay:10.37,2015-05-06 09:58:00,
2015-05-06 06:03:00,52.2,40.7,30.24,NE,45,3.3,4.6,65,0.00,CLR,,0.00,0.0,WeatherDisplay:10.37,2015-05-06 10:03:00,
2015-05-06 06:08:00,52.2,40.7,30.24,NE,45,3.3,4.3,65,0.00,CLR,,0.00,0.0,WeatherDisplay:10.37,2015-05-06 10:08:00,
2015-05-06 06:13:00,52.2,40.7,30.24,NE,45,3.3,4.6,65,0.00,CLR,,0.00,0.0,WeatherDisplay:10.37,2015-05-06 10:13:00,
2015-05-06 06:18:00,52.2,40.7,30.24,NE,45,3.6,4.6,65,0.00,CLR,,0.00,0.0,WeatherDisplay:10.37,2015-05-06 10:18:00,
2015-05-06 06:23:00,52.2,40.7,30.24,ENE,68,3.3,4.6,65,0.00,BKN,,0.00,0.0,WeatherDisplay:10.37,2015-05-06 10:23:00,
2015-05-06 06:28:00,52.2,40.7,30.24,NNE,22,3.8,5.8,65,0.00,BKN,,0.00,0.0,WeatherDisplay:10.37,2015-05-06 10:28:00,
2015-05-06 06:33:00,52.2,40.7,30.24,NE,45,2.9,3.5,65,0.00,BKN,,0.00,0.0,WeatherDisplay:10.37,2015-05-06 10:33:00,
2015-05-06 06:38:00,52.2,40.7,30.24,NE,45,3.6,4.6,65,0.00,BKN,,0.00,0.0,WeatherDisplay:10.37,2015-05-06 10:38:00,
2015-05-06 06:43:00,52.2,40.7,30.24,ENE,68,3.1,5.8,65,0.00,BKN,,0.00,0.0,WeatherDisplay:10.37,2015-05-06 10:43:00,
2015-05-06 06:48:00,52.2,40.7,30.24,ENE,68,3.6,5.8,65,0.00,BKN,,0.00,0.0,WeatherDisplay:10.37,2015-05-06 10:48:00,
2015-05-06 06:53:00,52.2,41.1,30.24,NNE,22,3.1,4.6,66,0.00,BKN,,0.00,0.0,WeatherDisplay:10.37,2015-05-06 10:53:00,
2015-05-06 06:58:00,52.2,41.1,30.24,NNE,22,3.3,4.6,66,0.00,BKN,,0.00,0.0,WeatherDisplay:10.37,2015-05-06 10:58:00,
2015-05-06 07:03:00,52.3,41.3,30.21,NE,45,2.9,4.6,66,0.00,BKN,,0.00,0.0,WeatherDisplay:10.37,2015-05-06 11:03:00,
2015-05-06 07:08:00,52.3,41.3,30.21,ENE,68,3.3,4.6,66,0.00,BKN,,0.00,0.0,WeatherDisplay:10.37,2015-05-06 11:08:00,
2015-05-06 07:13:00,52.3,41.3,30.21,NE,45,3.3,4.6,66,0.00,BKN,,0.00,0.0,WeatherDisplay:10.37,2015-05-06 11:13:00,
2015-05-06 07:18:00,52.3,41.3,30.24,NNE,22,2.6,3.5,66,0.00,BKN,,0.00,0.0,WeatherDisplay:10.37,2015-05-06 11:18:00,
2015-05-06 07:23:00,52.5,41.5,30.24,NE,45,3.3,4.7,66,0.00,BKN,,0.00,0.0,WeatherDisplay:10.37,2015-05-06 11:23:00,
2015-05-06 07:28:00,52.5,41.5,30.24,ENE,68,4.0,4.7,66,0.00,BKN,,0.00,0.0,WeatherDisplay:10.37,2015-05-06 11:28:00,
2015-05-06 07:33:00,52.5,41.5,30.24,NE,45,3.6,4.6,66,0.00,BKN,,0.00,0.0,WeatherDisplay:10.37,2015-05-06 11:33:00,
2015-05-06 07:38:00,52.7,41.7,30.24,NE,45,3.8,4.6,66,0.00,BKN,,0.00,0.0,WeatherDisplay:10.37,2015-05-06 11:38:00,
2015-05-06 07:43:00,52.7,41.7,30.24,NE,45,2.9,5.8,66,0.00,CLR,,0.00,0.0,WeatherDisplay:10.37,2015-05-06 11:43:00,
2015-05-06 07:48:00,52.9,41.8,30.24,NE,45,3.6,4.6,66,0.00,BKN,,0.00,0.0,WeatherDisplay:10.37,2015-05-06 11:48:00,
2015-05-06 07:53:00,52.9,41.8,30.24,NE,45,4.7,5.8,66,0.00,CLR,,0.00,100.0,WeatherDisplay:10.37,2015-05-06 11:53:00,
2015-05-06 07:58:00,52.9,41.8,30.24,NE,45,4.5,4.6,66,0.00,CLR,,0.00,100.0,WeatherDisplay:10.37,2015-05-06 11:58:00,
2015-05-06 08:03:00,52.9,41.8,30.24,NE,45,3.6,4.7,66,0.00,CLR,,0.00,100.0,WeatherDisplay:10.37,2015-05-06 12:03:00,
2015-05-06 08:08:00,53.1,42.0,30.24,ENE,68,4.7,5.8,66,0.00,CLR,,0.00,100.0,WeatherDisplay:10.37,2015-05-06 12:08:00,
2015-05-06 08:13:00,53.1,42.0,30.24,ENE,68,2.2,3.5,66,0.00,CLR,,0.00,100.0,WeatherDisplay:10.37,2015-05-06 12:13:00,
2015-05-06 08:18:00,53.2,42.2,30.24,SSE,158,3.3,4.7,66,0.00,CLR,,0.00,100.0,WeatherDisplay:10.37,2015-05-06 12:18:00,
2015-05-06 08:23:00,53.2,42.2,30.24,ENE,68,3.3,4.6,66,0.00,CLR,,0.00,100.0,WeatherDisplay:10.37,2015-05-06 12:23:00,
2015-05-06 08:28:00,53.4,42.3,30.24,NNE,22,3.1,4.6,66,0.00,CLR,,0.00,100.0,WeatherDisplay:10.37,2015-05-06 12:28:00,
2015-05-06 08:33:00,53.6,42.5,30.27,NNE,22,3.3,4.6,66,0.00,CLR,,0.00,200.0,WeatherDisplay:10.37,2015-05-06 12:33:00,
2015-05-06 08:38:00,53.6,42.5,30.27,NE,45,3.8,4.6,66,0.00,CLR,,0.00,200.0,WeatherDisplay:10.37,2015-05-06 12:38:00,
2015-05-06 08:43:00,53.8,42.7,30.27,ENE,68,3.1,4.6,66,0.00,CLR,,0.00,200.0,WeatherDisplay:10.37,2015-05-06 12:43:00,
2015-05-06 08:48:00,54.0,42.9,30.24,ESE,112,2.0,3.1,66,0.00,CLR,,0.00,200.0,WeatherDisplay:10.37,2015-05-06 12:48:00,
2015-05-06 08:53:00,54.1,43.0,30.24,ENE,68,3.1,4.6,66,0.00,CLR,,0.00,200.0,WeatherDisplay:10.37,2015-05-06 12:53:00,
2015-05-06 08:58:00,54.1,43.0,30.24,East,90,2.4,3.5,66,0.00,CLR,,0.00,200.0,WeatherDisplay:10.37,2015-05-06 12:58:00,
2015-05-06 09:03:00,54.3,42.8,30.27,ENE,68,4.0,5.6,65,0.00,CLR,,0.00,0.0,WeatherDisplay:10.37,2015-05-06 13:03:00,
2015-05-06 09:08:00,54.3,42.8,30.27,NE,45,4.5,5.8,65,0.00,CLR,,0.00,0.0,WeatherDisplay:10.37,2015-05-06 13:08:00,
2015-05-06 09:13:00,54.3,42.8,30.27,NE,45,4.9,5.8,65,0.00,CLR,,0.00,0.0,WeatherDisplay:10.37,2015-05-06 13:13:00,
2015-05-06 09:19:00,54.5,43.0,30.27,NE,45,3.1,4.6,65,0.00,CLR,,0.00,0.0,WeatherDisplay:10.37,2015-05-06 13:19:00,
2015-05-06 09:24:00,54.7,43.1,30.27,ENE,68,4.0,4.6,65,0.00,CLR,,0.00,0.0,WeatherDisplay:10.37,2015-05-06 13:24:00,
2015-05-06 09:29:00,54.7,43.1,30.27,ENE,68,3.3,5.8,65,0.00,CLR,,0.00,0.0,WeatherDisplay:10.37,2015-05-06 13:29:00,
2015-05-06 09:34:00,54.9,43.3,30.27,ENE,68,3.8,4.6,65,0.00,CLR,,0.00,0.0,WeatherDisplay:10.37,2015-05-06 13:34:00,
2015-05-06 09:39:00,55.0,43.5,30.27,NNE,22,2.9,5.4,65,0.00,CLR,,0.00,0.0,WeatherDisplay:10.37,2015-05-06 13:39:00,
2015-05-06 09:44:00,55.2,43.7,30.27,ENE,68,4.0,6.0,65,0.00,CLR,,0.00,0.0,WeatherDisplay:10.37,2015-05-06 13:44:00,
2015-05-06 09:49:00,55.4,43.8,30.27,ENE,68,2.4,4.6,65,0.00,CLR,,0.00,0.0,WeatherDisplay:10.37,2015-05-06 13:49:00,
2015-05-06 09:54:00,55.6,44.0,30.27,ESE,112,3.6,4.3,65,0.00,CLR,,0.00,0.0,WeatherDisplay:10.37,2015-05-06 13:54:00,
2015-05-06 09:59:00,56.1,44.5,30.27,NE,45,3.6,4.6,65,0.00,CLR,,0.00,0.0,WeatherDisplay:10.37,2015-05-06 13:59:00,
2015-05-06 10:04:00,56.5,44.9,30.24,ENE,68,4.0,5.8,65,0.00,CLR,,0.00,0.0,WeatherDisplay:10.37,2015-05-06 14:04:00,
2015-05-06 10:09:00,56.7,45.0,30.24,ENE,68,4.7,5.4,65,0.00,CLR,,0.00,0.0,WeatherDisplay:10.37,2015-05-06 14:09:00,
2015-05-06 10:14:00,56.8,44.8,30.24,ENE,68,3.8,5.9,64,0.00,CLR,,0.00,0.0,WeatherDisplay:10.37,2015-05-06 14:14:00,
2015-05-06 10:19:00,57.2,45.1,30.24,ENE,68,3.3,4.6,64,0.00,CLR,,0.00,0.0,WeatherDisplay:10.37,2015-05-06 14:19:00,
2015-05-06 10:24:00,57.2,44.7,30.24,East,90,3.1,5.8,63,0.00,CLR,,0.00,0.0,WeatherDisplay:10.37,2015-05-06 14:24:00,
2015-05-06 10:29:00,57.6,45.1,30.24,NE,45,3.3,4.3,63,0.00,CLR,,0.00,0.0,WeatherDisplay:10.37,2015-05-06 14:29:00,
2015-05-06 10:34:00,57.7,45.2,30.24,North,0,2.4,4.0,63,0.00,CLR,,0.00,0.0,WeatherDisplay:10.37,2015-05-06 14:34:00,
2015-05-06 10:39:00,57.9,45.0,30.24,ENE,68,4.0,5.8,62,0.00,CLR,,0.00,0.0,WeatherDisplay:10.37,2015-05-06 14:39:00,
2015-05-06 10:44:00,57.9,45.0,30.24,ENE,68,4.0,5.8,62,0.00,CLR,,0.00,0.0,WeatherDisplay:10.37,2015-05-06 14:44:00,
2015-05-06 10:49:00,58.1,45.1,30.24,NE,45,4.3,5.8,62,0.00,CLR,,0.00,0.0,WeatherDisplay:10.37,2015-05-06 14:49:00,
2015-05-06 10:54:00,58.3,44.9,30.24,NNE,22,3.1,5.8,61,0.00,CLR,,0.00,0.0,WeatherDisplay:10.37,2015-05-06 14:54:00,
2015-05-06 10:59:00,58.5,45.1,30.24,ENE,68,3.6,4.6,61,0.00,CLR,,0.00,0.0,WeatherDisplay:10.37,2015-05-06 14:59:00,
2015-05-06 11:04:00,58.6,45.2,30.24,East,90,4.0,5.8,61,0.00,CLR,,0.00,0.0,WeatherDisplay:10.37,2015-05-06 15:04:00,
2015-05-06 11:09:00,58.8,45.4,30.24,ENE,68,3.3,4.6,61,0.00,CLR,,0.00,0.0,WeatherDisplay:10.37,2015-05-06 15:09:00,
2015-05-06 11:14:00,59.0,45.1,30.24,ENE,68,3.1,4.6,60,0.00,CLR,,0.00,0.0,WeatherDisplay:10.37,2015-05-06 15:14:00,
2015-05-06 11:19:00,59.2,45.3,30.27,ESE,112,1.2,2.3,60,0.00,CLR,,0.00,0.0,WeatherDisplay:10.37,2015-05-06 15:19:00,
2015-05-06 11:24:00,59.4,45.0,30.27,ENE,68,2.2,2.3,59,0.00,CLR,,0.00,0.0,WeatherDisplay:10.37,2015-05-06 15:24:00,
2015-05-06 11:29:00,59.5,45.2,30.27,East,90,2.4,4.6,59,0.00,CLR,,0.00,0.0,WeatherDisplay:10.37,2015-05-06 15:29:00,
2015-05-06 11:34:00,59.7,45.4,30.24,ENE,68,3.1,5.8,59,0.00,CLR,,0.00,0.0,WeatherDisplay:10.37,2015-05-06 15:34:00,
2015-05-06 11:39:00,59.9,45.1,30.24,East,90,3.6,5.8,58,0.00,CLR,,0.00,0.0,WeatherDisplay:10.37,2015-05-06 15:39:00,
2015-05-06 11:44:00,60.1,45.2,30.24,ESE,112,4.5,5.8,58,0.00,CLR,,0.00,0.0,WeatherDisplay:10.37,2015-05-06 15:44:00,
2015-05-06 11:49:00,60.4,45.6,30.24,ESE,112,2.9,5.8,58,0.00,CLR,,0.00,0.0,WeatherDisplay:10.37,2015-05-06 15:49:00,
2015-05-06 11:54:00,60.4,45.6,30.24,ESE,112,3.6,5.8,58,0.00,CLR,,0.00,0.0,WeatherDisplay:10.37,2015-05-06 15:54:00,
2015-05-06 11:59:00,60.8,45.5,30.24,ESE,112,1.6,3.5,57,0.00,CLR,,0.00,0.0,WeatherDisplay:10.37,2015-05-06 15:59:00,
2015-05-06 12:04:00,61.2,45.8,30.27,SSE,158,2.6,3.5,57,0.00,CLR,,0.00,0.0,WeatherDisplay:10.37,2015-05-06 16:04:00,
2015-05-06 12:09:00,61.3,45.5,30.27,ESE,112,2.9,4.3,56,0.00,CLR,,0.00,0.0,WeatherDisplay:10.37,2015-05-06 16:09:00,
2015-05-06 12:14:00,61.7,46.3,30.27,SSE,158,4.9,6.9,57,0.00,CLR,,0.00,0.0,WeatherDisplay:10.37,2015-05-06 16:14:00,
2015-05-06 12:19:00,61.9,46.0,30.24,ESE,112,3.3,4.6,56,0.00,CLR,,0.00,0.0,WeatherDisplay:10.37,2015-05-06 16:19:00,
2015-05-06 12:24:00,62.1,46.2,30.24,ESE,112,3.3,6.9,56,0.00,CLR,,0.00,0.0,WeatherDisplay:10.37,2015-05-06 16:24:00,
2015-05-06 12:29:00,62.4,46.5,30.24,ESE,112,2.9,4.6,56,0.00,CLR,,0.00,0.0,WeatherDisplay:10.37,2015-05-06 16:29:00,
2015-05-06 12:34:00,62.8,45.9,30.27,SSE,158,2.0,2.3,54,0.00,CLR,,0.00,0.0,WeatherDisplay:10.37,2015-05-06 16:34:00,
2015-05-06 12:39:00,63.1,46.7,30.27,ESE,112,2.4,3.5,55,0.00,CLR,,0.00,0.0,WeatherDisplay:10.37,2015-05-06 16:39:00,
2015-05-06 12:44:00,63.3,45.9,30.27,ENE,68,2.6,4.6,53,0.00,CLR,,0.00,0.0,WeatherDisplay:10.37,2015-05-06 16:44:00,
2015-05-06 12:49:00,63.5,45.6,30.24,SSE,158,0.0,2.3,52,0.00,CLR,,0.00,0.0,WeatherDisplay:10.37,2015-05-06 16:49:00,